QPF
0.01 0.00 0.00 0.00 0.01 0.01 0.01 0.01 0.01 0.01 0.01 0.01 0.01 0.02 0.01 0.01 0.00 0.00 0.01 0.02 0.01 0.01 0.01 0.01 0.02 0.02 0.02 0.03 0.05 0.05 0.05 0.04 0.05 0.05 0.05 0.05 0.06 0.06 0.06 0.05 0.03 0.03 0.04 0.04
0.01 0.01 0.00 0.00 0.00 0.00 0.00 0.01 0.01 0.01 0.01 0.01 0.02 0.02 0.02 0.02 0.01 0.01 0.01 0.02 0.02 0.02 0.01 0.02 0.02 0.02 0.02 0.03 0.04 0.05 0.06 0.05 0.05 0.05 0.06 0.06 0.06 0.05 0.05 0.04 0.03 0.02 0.02 0.05
0.02 0.01 0.00 0.00 0.00 0.00 0.00 0.00 0.02 0.02 0.01 0.01 0.02 0.03 0.04 0.03 0.02 0.02 0.02 0.02 0.03 0.03 0.02 0.03 0.05 0.03 0.03 0.03 0.03 0.03 0.05 0.05 0.04 0.05 0.05 0.05 0.05 0.05 0.05 0.06 0.06 0.04 0.03 0.05
0.01 0.01 0.00 0.00 0.00 0.00 0.00 0.00 0.01 0.03 0.02 0.02 0.02 0.04 0.05 0.05 0.03 0.03 0.03 0.02 0.02 0.02 0.02 0.03 0.04 0.04 0.03 0.03 0.03 0.03 0.04 0.05 0.04 0.04 0.05 0.05 0.05 0.05 0.08 0.08 0.07 0.06 0.04 0.04
0.00 0.00 0.01 0.00 0.00 0.00 0.00 0.00 0.01 0.02 0.02 0.03 0.03 0.04 0.05 0.09 0.10 0.05 0.02 0.01 0.00 0.00 0.01 0.02 0.02 0.03 0.02 0.02 0.02 0.03 0.03 0.05 0.05 0.04 0.04 0.06 0.06 0.08 0.09 0.09 0.08 0.07 0.05 0.04
0.00 0.00 0.00 0.00 0.00 0.00 0.00 0.01 0.02 0.02 0.03 0.07 0.05 0.05 0.06 0.06 0.07 0.03 0.02 0.01 0.00 0.01 0.01 0.01 0.02 0.03 0.03 0.02 0.02 0.03 0.03 0.04 0.06 0.05 0.04 0.05 0.07 0.09 0.10 0.12 0.10 0.09 0.07 0.07
0.01 0.00 0.00 0.00 0.00 0.00 0.01 0.03 0.07 0.07 0.07 0.07 0.05 0.06 0.07 0.06 0.03 0.02 0.03 0.02 0.01 0.02 0.02 0.03 0.02 0.01 0.02 0.02 0.02 0.02 0.03 0.04 0.05 0.05 0.05 0.05 0.06 0.07 0.09 0.09 0.08 0.07 0.05 0.05
0.01 0.00 0.00 0.01 0.01 0.00 0.01 0.03 0.07 0.08 0.07 0.07 0.06 0.08 0.09 0.05 0.03 0.03 0.01 0.03 0.03 0.04 0.03 0.04 0.04 0.02 0.02 0.03 0.04 0.03 0.03 0.04 0.05 0.06 0.07 0.07 0.06 0.05 0.05 0.06 0.06 0.05 0.03 0.02
0.01 0.01 0.00 0.01 0.00 0.00 0.01 0.02 0.03 0.06 0.07 0.11 0.09 0.09 0.09 0.07 0.04 0.03 0.02 0.02 0.01 0.01 0.02 0.03 0.05 0.04 0.05 0.05 0.05 0.04 0.03 0.04 0.05 0.06 0.06 0.05 0.05 0.04 0.04 0.06 0.06 0.05 0.05 0.04
0.01 0.01 0.01 0.01 0.00 0.01 0.01 0.01 0.04 0.09 0.12 0.10 0.07 0.08 0.10 0.09 0.06 0.03 0.02 0.01 0.01 0.01 0.02 0.02 0.03 0.04 0.04 0.04 0.04 0.03 0.03 0.04 0.05 0.04 0.03 0.03 0.03 0.03 0.03 0.04 0.04 0.05 0.05 0.04
0.02 0.02 0.01 0.01 0.01 0.01 0.02 0.02 0.03 0.06 0.08 0.09 0.10 0.12 0.10 0.11 0.08 0.05 0.03 0.02 0.01 0.02 0.02 0.01 0.02 0.02 0.02 0.01 0.01 0.02 0.02 0.03 0.03 0.02 0.03 0.02 0.03 0.03 0.02 0.02 0.03 0.04 0.04 0.03
0.01 0.01 0.03 0.02 0.01 0.01 0.01 0.01 0.01 0.06 0.10 0.08 0.12 0.13 0.06 0.07 0.05 0.02 0.02 0.01 0.02 0.02 0.02 0.01 0.01 0.01 0.01 0.01 0.01 0.01 0.02 0.03 0.03 0.03 0.03 0.03 0.03 0.03 0.02 0.02 0.03 0.05 0.05 0.05
0.01 0.01 0.05 0.05 0.03 0.02 0.01 0.01 0.01 0.03 0.09 0.11 0.13 0.13 0.07 0.08 0.04 0.02 0.02 0.02 0.02 0.02 0.02 0.02 0.02 0.01 0.01 0.01 0.01 0.01 0.02 0.03 0.03 0.04 0.04 0.04 0.03 0.02 0.02 0.04 0.05 0.05 0.05 0.04
0.00 0.01 0.02 0.04 0.04 0.03 0.03 0.03 0.04 0.04 0.07 0.08 0.14 0.12 0.08 0.06 0.03 0.03 0.03 0.03 0.02 0.02 0.03 0.03 0.03 0.02 0.02 0.02 0.02 0.03 0.04 0.04 0.03 0.04 0.04 0.04 0.03 0.04 0.04 0.05 0.05 0.04 0.04 0.04
0.00 0.00 0.01 0.01 0.01 0.00 0.01 0.02 0.02 0.02 0.04 0.05 0.09 0.09 0.05 0.03 0.03 0.04 0.06 0.06 0.03 0.02 0.02 0.03 0.02 0.02 0.02 0.03 0.04 0.03 0.03 0.02 0.03 0.04 0.03 0.03 0.03 0.05 0.06 0.06 0.05 0.04 0.04 0.04
0.00 0.02 0.02 0.01 0.00 0.00 0.00 0.00 0.00 0.01 0.02 0.04 0.07 0.09 0.03 0.02 0.02 0.03 0.04 0.04 0.04 0.02 0.01 0.01 0.01 0.01 0.02 0.02 0.02 0.02 0.02 0.02 0.04 0.04 0.03 0.03 0.04 0.05 0.04 0.05 0.05 0.05 0.05 0.05
0.01 0.02 0.03 0.02 0.01 0.01 0.01 0.01 0.01 0.01 0.01 0.03 0.06 0.07 0.02 0.02 0.02 0.02 0.02 0.02 0.02 0.01 0.01 0.01 0.02 0.02 0.02 0.02 0.02 0.02 0.02 0.03 0.04 0.04 0.03 0.03 0.02 0.03 0.04 0.04 0.05 0.06 0.08 0.08
0.01 0.01 0.01 0.03 0.03 0.04 0.02 0.01 0.01 0.01 0.01 0.02 0.02 0.01 0.01 0.01 0.01 0.01 0.01 0.01 0.02 0.02 0.03 0.02 0.02 0.02 0.02 0.02 0.02 0.02 0.02 0.02 0.02 0.02 0.02 0.02 0.02 0.02 0.03 0.05 0.05 0.05 0.06 0.06
0.00 0.01 0.02 0.04 0.06 0.06 0.02 0.01 0.00 0.01 0.02 0.01 0.01 0.01 0.01 0.01 0.01 0.01 0.01 0.00 0.01 0.02 0.02 0.02 0.02 0.01 0.02 0.02 0.02 0.02 0.02 0.03 0.02 0.02 0.02 0.02 0.02 0.02 0.03 0.04 0.04 0.05 0.05 0.05
0.01 0.02 0.03 0.04 0.05 0.07 0.04 0.01 0.01 0.01 0.03 0.02 0.01 0.01 0.00 0.01 0.03 0.03 0.02 0.01 0.01 0.01 0.02 0.02 0.02 0.02 0.03 0.03 0.03 0.03 0.03 0.03 0.03 0.02 0.02 0.01 0.01 0.02 0.03 0.04 0.04 0.05 0.05 0.05
0.02 0.02 0.02 0.03 0.04 0.03 0.02 0.00 0.00 0.03 0.04 0.02 0.01 0.02 0.01 0.02 0.03 0.04 0.03 0.02 0.01 0.01 0.02 0.02 0.02 0.03 0.04 0.03 0.04 0.05 0.05 0.03 0.02 0.02 0.02 0.01 0.02 0.03 0.04 0.05 0.06 0.05 0.05 0.04
0.01 0.03 0.04 0.03 0.04 0.04 0.01 0.01 0.01 0.02 0.02 0.02 0.01 0.02 0.02 0.02 0.03 0.04 0.03 0.03 0.02 0.01 0.01 0.01 0.02 0.04 0.07 0.07 0.07 0.06 0.04 0.03 0.03 0.03 0.04 0.03 0.03 0.03 0.04 0.05 0.06 0.05 0.06 0.05
0.02 0.03 0.04 0.04 0.04 0.03 0.02 0.02 0.01 0.01 0.01 0.01 0.01 0.01 0.01 0.01 0.02 0.02 0.02 0.03 0.02 0.02 0.01 0.01 0.02 0.04 0.08 0.10 0.10 0.08 0.05 0.03 0.03 0.04 0.04 0.04 0.04 0.04 0.04 0.05 0.07 0.08 0.08 0.07
0.02 0.01 0.02 0.03 0.03 0.02 0.01 0.01 0.01 0.01 0.01 0.00 0.00 0.01 0.01 0.01 0.01 0.01 0.01 0.02 0.03 0.03 0.02 0.03 0.03 0.04 0.06 0.06 0.06 0.06 0.05 0.03 0.03 0.04 0.05 0.05 0.05 0.05 0.04 0.04 0.04 0.05 0.07 0.08
0.02 0.02 0.02 0.03 0.02 0.02 0.02 0.02 0.02 0.01 0.01 0.00 0.01 0.01 0.01 0.01 0.00 0.00 0.01 0.02 0.02 0.03 0.04 0.04 0.04 0.04 0.04 0.04 0.05 0.04 0.04 0.04 0.04 0.05 0.06 0.05 0.05 0.05 0.05 0.04 0.04 0.03 0.03 0.05
0.02 0.02 0.03 0.04 0.04 0.04 0.03 0.03 0.02 0.01 0.01 0.01 0.01 0.01 0.01 0.01 0.01 0.01 0.01 0.02 0.03 0.03 0.04 0.04 0.03 0.02 0.03 0.03 0.03 0.03 0.04 0.04 0.05 0.06 0.06 0.05 0.05 0.05 0.04 0.04 0.04 0.03 0.02 0.03
MSLP
1007.08 1007.08 1007.02 1006.97 1007.01 1007.19 1007.51 1007.94 1008.41 1008.84 1009.15 1009.31 1009.30 1009.16 1008.96 1008.79 1008.72 1008.82 1009.10 1009.54 1010.09 1010.67 1011.21 1011.65 1011.97 1012.16 1012.26 1012.30 1012.32 1012.35 1012.38 1012.40 1012.37 1012.26 1012.03 1011.68 1011.21 1010.64 1010.04 1009.46 1008.93 1008.51 1008.19 1007.96
1007.37 1007.17 1006.95 1006.82 1006.87 1007.14 1007.63 1008.26 1008.94 1009.53 1009.93 1010.08 1009.96 1009.63 1009.19 1008.76 1008.48 1008.41 1008.61 1009.06 1009.69 1010.39 1011.07 1011.64 1012.04 1012.26 1012.34 1012.33 1012.27 1012.23 1012.22 1012.24 1012.25 1012.20 1012.05 1011.77 1011.34 1010.78 1010.15 1009.49 1008.89 1008.38 1007.99 1007.72
1007.54 1007.12 1006.73 1006.52 1006.59 1006.98 1007.67 1008.56 1009.49 1010.29 1010.82 1010.99 1010.80 1010.30 1009.62 1008.92 1008.39 1008.12 1008.19 1008.59 1009.25 1010.03 1010.82 1011.50 1011.98 1012.24 1012.31 1012.26 1012.14 1012.04 1012.00 1012.02 1012.06 1012.07 1012.00 1011.79 1011.41 1010.87 1010.22 1009.53 1008.86 1008.28 1007.83 1007.51
1007.66 1007.00 1006.44 1006.15 1006.26 1006.79 1007.70 1008.86 1010.07 1011.12 1011.82 1012.06 1011.83 1011.19 1010.29 1009.34 1008.54 1008.04 1007.94 1008.24 1008.86 1009.68 1010.53 1011.28 1011.83 1012.13 1012.21 1012.13 1011.97 1011.83 1011.76 1011.77 1011.84 1011.91 1011.90 1011.76 1011.45 1010.96 1010.32 1009.61 1008.91 1008.28 1007.77 1007.40
1007.77 1006.88 1006.16 1005.80 1005.93 1006.60 1007.73 1009.16 1010.65 1011.95 1012.84 1013.19 1012.95 1012.22 1011.14 1009.96 1008.91 1008.18 1007.89 1008.05 1008.59 1009.38 1010.26 1011.05 1011.65 1011.98 1012.08 1011.99 1011.81 1011.63 1011.54 1011.55 1011.63 1011.74 1011.80 1011.73 1011.49 1011.05 1010.46 1009.76 1009.05 1008.40 1007.85 1007.44
1007.92 1006.83 1005.97 1005.54 1005.69 1006.46 1007.75 1009.40 1011.13 1012.66 1013.73 1014.19 1013.99 1013.21 1012.02 1010.66 1009.40 1008.46 1007.98 1007.99 1008.44 1009.18 1010.05 1010.86 1011.49 1011.86 1011.97 1011.89 1011.70 1011.51 1011.39 1011.39 1011.49 1011.62 1011.73 1011.72 1011.55 1011.18 1010.64 1009.99 1009.30 1008.65 1008.09 1007.65
1008.14 1006.90 1005.92 1005.43 1005.56 1006.37 1007.76 1009.54 1011.42 1013.10 1014.31 1014.87 1014.72 1013.94 1012.69 1011.23 1009.84 1008.76 1008.14 1008.02 1008.37 1009.06 1009.91 1010.73 1011.38 1011.78 1011.92 1011.85 1011.67 1011.47 1011.34 1011.32 1011.41 1011.56 1011.69 1011.73 1011.62 1011.32 1010.85 1010.26 1009.62 1009.00 1008.44 1007.99
1008.42 1007.10 1006.04 1005.48 1005.56 1006.33 1007.71 1009.50 1011.42 1013.15 1014.42 1015.05 1014.96 1014.21 1012.97 1011.50 1010.07 1008.93 1008.23 1008.05 1008.34 1008.99 1009.82 1010.65 1011.33 1011.76 1011.94 1011.90 1011.72 1011.52 1011.37 1011.33 1011.40 1011.53 1011.68 1011.74 1011.68 1011.44 1011.05 1010.53 1009.95 1009.37 1008.85 1008.41
1008.72 1007.40 1006.31 1005.69 1005.68 1006.34 1007.60 1009.28 1011.10 1012.77 1014.01 1014.64 1014.59 1013.91 1012.74 1011.34 1009.97 1008.87 1008.19 1008.01 1008.30 1008.94 1009.77 1010.61 1011.32 1011.79 1012.00 1011.99 1011.83 1011.62 1011.46 1011.39 1011.42 1011.53 1011.66 1011.73 1011.69 1011.51 1011.18 1010.73 1010.23 1009.71 1009.24 1008.84
1008.98 1007.75 1006.69 1006.03 1005.91 1006.41 1007.46 1008.90 1010.50 1011.99 1013.10 1013.68 1013.65 1013.04 1012.00 1010.75 1009.52 1008.55 1007.98 1007.87 1008.21 1008.88 1009.74 1010.60 1011.33 1011.82 1012.07 1012.09 1011.94 1011.74 1011.56 1011.45 1011.44 1011.51 1011.60 1011.66 1011.63 1011.48 1011.21 1010.83 1010.40 1009.96 1009.55 1009.20
1009.15 1008.09 1007.12 1006.45 1006.23 1006.53 1007.30 1008.44 1009.72 1010.93 1011.84 1012.31 1012.27 1011.74 1010.86 1009.80 1008.80 1008.03 1007.64 1007.67 1008.09 1008.82 1009.70 1010.59 1011.33 1011.85 1012.12 1012.16 1012.03 1011.83 1011.63 1011.49 1011.44 1011.45 1011.50 1011.54 1011.50 1011.37 1011.14 1010.82 1010.45 1010.08 1009.75 1009.46
1009.20 1008.36 1007.54 1006.91 1006.61 1006.71 1007.19 1007.97 1008.90 1009.78 1010.44 1010.75 1010.67 1010.23 1009.51 1008.69 1007.94 1007.43 1007.25 1007.44 1007.99 1008.78 1009.69 1010.58 1011.33 1011.85 1012.13 1012.18 1012.06 1011.86 1011.65 1011.49 1011.39 1011.37 1011.37 1011.37 1011.32 1011.20 1010.99 1010.71 1010.41 1010.10 1009.82 1009.60
1009.11 1008.53 1007.90 1007.35 1007.01 1006.93 1007.14 1007.59 1008.14 1008.68 1009.07 1009.22 1009.10 1008.72 1008.17 1007.59 1007.11 1006.86 1006.91 1007.28 1007.94 1008.79 1009.72 1010.60 1011.33 1011.83 1012.10 1012.15 1012.04 1011.85 1011.63 1011.45 1011.33 1011.27 1011.24 1011.21 1011.14 1011.01 1010.81 1010.57 1010.30 1010.04 1009.82 1009.64
1008.89 1008.58 1008.15 1007.72 1007.37 1007.18 1007.17 1007.31 1007.54 1007.76 1007.90 1007.89 1007.71 1007.40 1007.01 1006.66 1006.44 1006.44 1006.71 1007.24 1007.99 1008.89 1009.81 1010.65 1011.34 1011.80 1012.05 1012.09 1011.99 1011.80 1011.60 1011.41 1011.28 1011.20 1011.14 1011.08 1010.99 1010.85 1010.66 1010.43 1010.19 1009.96 1009.77 1009.62
1008.58 1008.50 1008.28 1007.97 1007.66 1007.40 1007.22 1007.13 1007.09 1007.05 1006.97 1006.83 1006.61 1006.36 1006.13 1005.98 1005.99 1006.21 1006.66 1007.33 1008.15 1009.06 1009.95 1010.75 1011.37 1011.79 1012.00 1012.03 1011.93 1011.76 1011.57 1011.40 1011.27 1011.17 1011.09 1011.01 1010.91 1010.76 1010.57 1010.34 1010.12 1009.90 1009.73 1009.59
1008.22 1008.32 1008.26 1008.07 1007.82 1007.53 1007.26 1007.00 1006.76 1006.53 1006.29 1006.05 1005.82 1005.63 1005.52 1005.55 1005.76 1006.17 1006.77 1007.53 1008.40 1009.30 1010.14 1010.87 1011.42 1011.78 1011.96 1011.97 1011.88 1011.73 1011.57 1011.42 1011.30 1011.20 1011.12 1011.02 1010.90 1010.73 1010.54 1010.32 1010.09 1009.89 1009.71 1009.59
1007.86 1008.06 1008.11 1008.02 1007.83 1007.55 1007.22 1006.87 1006.50 1006.14 1005.81 1005.51 1005.28 1005.15 1005.15 1005.33 1005.70 1006.25 1006.96 1007.79 1008.68 1009.55 1010.34 1011.00 1011.48 1011.79 1011.93 1011.94 1011.86 1011.73 1011.60 1011.48 1011.37 1011.28 1011.19 1011.08 1010.94 1010.77 1010.56 1010.34 1010.11 1009.91 1009.74 1009.62
1007.54 1007.77 1007.88 1007.84 1007.68 1007.42 1007.08 1006.67 1006.25 1005.82 1005.43 1005.12 1004.91 1004.85 1004.95 1005.25 1005.74 1006.40 1007.19 1008.06 1008.95 1009.78 1010.52 1011.11 1011.53 1011.79 1011.90 1011.91 1011.85 1011.75 1011.65 1011.55 1011.46 1011.38 1011.28 1011.16 1011.00 1010.81 1010.59 1010.37 1010.15 1009.96 1009.81 1009.69
1007.28 1007.49 1007.58 1007.56 1007.42 1007.17 1006.82 1006.41 1005.96 1005.51 1005.12 1004.82 1004.65 1004.65 1004.85 1005.24 1005.82 1006.56 1007.40 1008.28 1009.16 1009.96 1010.64 1011.17 1011.55 1011.77 1011.88 1011.89 1011.85 1011.77 1011.70 1011.62 1011.54 1011.46 1011.35 1011.21 1011.03 1010.83 1010.60 1010.38 1010.17 1010.00 1009.87 1009.78
1007.10 1007.22 1007.27 1007.23 1007.09 1006.84 1006.49 1006.09 1005.64 1005.21 1004.84 1004.58 1004.46 1004.53 1004.80 1005.27 1005.91 1006.70 1007.56 1008.45 1009.30 1010.06 1010.70 1011.19 1011.53 1011.73 1011.83 1011.86 1011.84 1011.79 1011.74 1011.68 1011.61 1011.51 1011.38 1011.22 1011.02 1010.80 1010.57 1010.35 1010.17 1010.03 1009.93 1009.88
1006.96 1006.99 1006.97 1006.89 1006.72 1006.46 1006.13 1005.73 1005.32 1004.92 1004.59 1004.38 1004.33 1004.46 1004.79 1005.32 1006.01 1006.82 1007.69 1008.57 1009.39 1010.12 1010.72 1011.17 1011.49 1011.68 1011.79 1011.83 1011.83 1011.81 1011.77 1011.72 1011.65 1011.54 1011.39 1011.20 1010.98 1010.74 1010.51 1010.30 1010.13 1010.02 1009.97 1009.97
1006.83 1006.78 1006.69 1006.55 1006.35 1006.08 1005.75 1005.38 1005.00 1004.66 1004.39 1004.24 1004.25 1004.45 1004.83 1005.41 1006.12 1006.94 1007.81 1008.66 1009.46 1010.15 1010.71 1011.14 1011.44 1011.64 1011.75 1011.81 1011.83 1011.83 1011.81 1011.76 1011.69 1011.56 1011.39 1011.18 1010.94 1010.68 1010.44 1010.24 1010.09 1010.02 1010.01 1010.07
1006.66 1006.54 1006.40 1006.21 1005.98 1005.70 1005.39 1005.05 1004.71 1004.42 1004.22 1004.15 1004.23 1004.49 1004.93 1005.53 1006.27 1007.09 1007.94 1008.77 1009.53 1010.19 1010.72 1011.13 1011.42 1011.62 1011.75 1011.82 1011.87 1011.88 1011.87 1011.83 1011.75 1011.61 1011.43 1011.19 1010.93 1010.66 1010.41 1010.21 1010.08 1010.03 1010.07 1010.16
1006.43 1006.26 1006.08 1005.85 1005.60 1005.32 1005.02 1004.71 1004.43 1004.21 1004.09 1004.09 1004.25 1004.57 1005.06 1005.69 1006.44 1007.25 1008.08 1008.88 1009.61 1010.24 1010.75 1011.15 1011.44 1011.64 1011.78 1011.88 1011.94 1011.97 1011.97 1011.93 1011.85 1011.71 1011.51 1011.26 1010.99 1010.71 1010.46 1010.26 1010.14 1010.10 1010.15 1010.27
1006.11 1005.92 1005.71 1005.46 1005.19 1004.91 1004.63 1004.36 1004.14 1003.99 1003.95 1004.03 1004.26 1004.65 1005.19 1005.86 1006.61 1007.42 1008.24 1009.01 1009.71 1010.32 1010.81 1011.19 1011.48 1011.69 1011.85 1011.96 1012.04 1012.09 1012.10 1012.07 1011.98 1011.84 1011.64 1011.39 1011.12 1010.84 1010.59 1010.39 1010.27 1010.24 1010.29 1010.41
1005.74 1005.54 1005.30 1005.04 1004.76 1004.48 1004.22 1003.99 1003.83 1003.75 1003.79 1003.95 1004.26 1004.71 1005.30 1006.00 1006.77 1007.58 1008.38 1009.13 1009.81 1010.40 1010.88 1011.25 1011.54 1011.76 1011.93 1012.05 1012.14 1012.20 1012.22 1012.20 1012.12 1011.98 1011.79 1011.55 1011.29 1011.02 1010.78 1010.59 1010.47 1010.43 1010.48 1010.59
Thickness
5775 5764 5760 5770 5779 5782 5782 5780 5777 5786 5802 5797 5792 5789 5793 5797 5798 5795 5791 5788 5785 5780 5781 5778 5772 5768 5763 5758 5753 5750 5746 5744 5741 5738 5734 5732 5730 5731 5730 5729 5727 5726 5724 5722
5761 5760 5776 5786 5788 5785 5781 5778 5779 5790 5802 5798 5790 5786 5793 5794 5791 5793 5790 5786 5782 5778 5776 5772 5768 5764 5759 5754 5750 5747 5744 5741 5739 5736 5733 5731 5729 5728 5728 5727 5725 5723 5721 5719
5757 5770 5787 5783 5780 5778 5779 5778 5779 5778 5791 5796 5786 5774 5780 5789 5791 5787 5789 5787 5782 5777 5772 5768 5763 5759 5757 5752 5749 5746 5742 5739 5736 5734 5732 5730 5727 5725 5724 5722 5721 5720 5717 5715
5766 5782 5782 5777 5777 5779 5772 5791 5786 5782 5774 5773 5779 5752 5765 5776 5778 5779 5779 5780 5779 5776 5772 5767 5763 5756 5754 5750 5748 5744 5740 5737 5734 5733 5730 5725 5721 5719 5719 5719 5718 5717 5715 5713
5767 5779 5777 5773 5780 5785 5782 5794 5788 5782 5774 5767 5771 5754 5758 5774 5767 5770 5776 5777 5778 5776 5771 5766 5762 5757 5754 5751 5747 5742 5738 5735 5733 5731 5728 5724 5721 5719 5718 5717 5715 5713 5712 5710
5774 5788 5786 5784 5792 5794 5792 5786 5781 5780 5769 5745 5758 5750 5751 5767 5768 5770 5775 5775 5774 5773 5770 5765 5761 5756 5752 5749 5745 5740 5736 5732 5730 5728 5726 5722 5719 5717 5715 5713 5710 5709 5708 5707
5758 5773 5785 5790 5779 5786 5782 5761 5742 5740 5741 5742 5764 5751 5749 5770 5779 5778 5774 5772 5772 5770 5765 5760 5755 5751 5748 5745 5742 5738 5733 5729 5727 5725 5722 5720 5718 5715 5712 5709 5707 5706 5705 5703
5747 5752 5775 5784 5778 5770 5774 5765 5740 5725 5731 5741 5751 5743 5754 5771 5779 5781 5778 5773 5768 5762 5760 5755 5752 5748 5745 5742 5739 5735 5730 5726 5724 5721 5719 5718 5716 5713 5711 5709 5707 5704 5702 5701
5752 5754 5782 5787 5789 5779 5767 5766 5774 5754 5748 5738 5742 5747 5754 5766 5768 5771 5770 5768 5763 5759 5756 5753 5750 5747 5743 5739 5735 5732 5727 5723 5721 5720 5717 5715 5713 5711 5709 5707 5705 5702 5700 5699
5758 5747 5767 5780 5784 5782 5779 5775 5762 5746 5725 5722 5731 5735 5736 5746 5750 5759 5760 5761 5762 5759 5755 5751 5747 5743 5741 5737 5733 5730 5726 5721 5719 5718 5716 5715 5712 5710 5707 5705 5701 5699 5697 5695
5763 5745 5754 5765 5761 5760 5763 5760 5758 5751 5744 5724 5718 5723 5749 5750 5753 5752 5756 5760 5758 5756 5752 5749 5745 5742 5739 5735 5731 5726 5724 5721 5717 5716 5714 5712 5710 5707 5704 5701 5699 5696 5694 5692
5756 5747 5739 5753 5772 5778 5768 5759 5755 5735 5731 5738 5728 5718 5754 5754 5756 5756 5758 5758 5756 5753 5751 5748 5744 5740 5735 5731 5728 5724 5721 5719 5716 5714 5712 5709 5707 5704 5701 5699 5696 5694 5691 5689
5748 5735 5722 5733 5749 5760 5756 5756 5756 5750 5738 5730 5722 5716 5747 5748 5751 5755 5755 5753 5751 5748 5746 5743 5739 5735 5731 5727 5724 5721 5719 5717 5715 5712 5709 5705 5702 5700 5697 5696 5694 5691 5688 5686
5752 5736 5726 5721 5733 5745 5743 5747 5752 5742 5728 5723 5722 5721 5734 5738 5744 5747 5747 5748 5747 5743 5740 5737 5733 5729 5726 5723 5720 5718 5716 5714 5712 5709 5706 5702 5699 5697 5694 5693 5691 5688 5685 5683
5745 5730 5734 5740 5750 5751 5748 5747 5748 5742 5737 5728 5723 5723 5730 5737 5743 5744 5743 5743 5739 5735 5733 5730 5727 5724 5722 5719 5717 5715 5712 5711 5709 5705 5702 5699 5696 5694 5692 5689 5687 5686 5683 5681
5738 5724 5727 5730 5742 5747 5745 5750 5750 5746 5743 5738 5731 5723 5740 5744 5745 5741 5739 5737 5733 5729 5727 5726 5723 5720 5717 5714 5712 5710 5709 5707 5705 5701 5698 5696 5694 5690 5688 5685 5684 5682 5679 5677
5728 5719 5713 5715 5729 5732 5727 5742 5744 5743 5745 5738 5725 5725 5736 5736 5736 5734 5733 5732 5729 5726 5723 5720 5717 5715 5712 5711 5708 5706 5705 5703 5700 5697 5695 5693 5690 5687 5685 5683 5680 5677 5675 5673
5721 5714 5710 5709 5713 5700 5728 5756 5751 5742 5740 5741 5737 5735 5734 5734 5734 5733 5732 5728 5726 5723 5719 5716 5713 5710 5709 5707 5704 5702 5700 5698 5695 5692 5690 5689 5687 5684 5682 5679 5676 5674 5671 5669
5728 5715 5707 5703 5701 5707 5726 5741 5742 5734 5726 5735 5731 5731 5735 5734 5728 5724 5728 5727 5724 5720 5716 5713 5711 5707 5704 5702 5699 5696 5693 5691 5689 5687 5685 5684 5683 5680 5677 5674 5672 5670 5667 5665
5724 5719 5706 5699 5691 5689 5708 5734 5744 5732 5712 5726 5727 5725 5726 5724 5710 5711 5722 5722 5720 5717 5713 5709 5707 5703 5698 5696 5694 5690 5687 5685 5683 5682 5682 5681 5679 5676 5673 5671 5669 5667 5664 5662
5703 5704 5699 5695 5690 5696 5714 5730 5733 5704 5695 5715 5719 5717 5717 5713 5709 5711 5716 5715 5713 5711 5708 5706 5702 5697 5693 5692 5688 5684 5682 5680 5680 5680 5678 5676 5675 5673 5671 5669 5666 5663 5661 5659
5697 5693 5691 5691 5683 5681 5710 5713 5702 5697 5708 5711 5710 5711 5709 5708 5709 5709 5708 5707 5706 5703 5702 5699 5695 5691 5690 5687 5683 5679 5677 5677 5677 5676 5674 5672 5671 5670 5669 5665 5662 5660 5657 5654
5693 5691 5693 5687 5683 5693 5701 5698 5700 5703 5701 5703 5703 5705 5705 5702 5701 5702 5701 5701 5699 5697 5695 5693 5689 5685 5684 5682 5679 5675 5674 5675 5673 5671 5669 5667 5666 5665 5663 5661 5658 5655 5653 5650
5685 5694 5689 5683 5684 5689 5692 5693 5695 5696 5695 5697 5698 5698 5697 5694 5695 5694 5694 5694 5692 5690 5688 5686 5683 5679 5678 5677 5676 5673 5673 5671 5669 5666 5663 5662 5661 5660 5659 5657 5655 5652 5650 5647
5669 5677 5676 5672 5675 5679 5681 5684 5686 5687 5689 5689 5690 5690 5690 5688 5687 5688 5686 5687 5686 5684 5683 5680 5677 5675 5673 5673 5671 5669 5668 5666 5663 5660 5658 5657 5657 5656 5655 5653 5650 5649 5646 5643
5662 5661 5660 5657 5664 5666 5668 5678 5682 5680 5679 5680 5680 5680 5682 5682 5680 5681 5680 5680 5679 5678 5676 5674 5672 5670 5669 5668 5666 5664 5663 5660 5657 5654 5652 5652 5651 5651 5650 5649 5646 5643 5640 5637